TimeEDT,TemperatureF,Dew PointF,Humidity,Sea Level PressureIn,VisibilityMPH,Wind Direction,Wind SpeedMPH,Gust SpeedMPH,PrecipitationIn,Events,Conditions,WindDirDegrees,DateUTC
12:53 AM,79.0,75.9,90,30.05,10.0,SE,11.5,-,N/A,,Clear,140,2013-05-11 04:53:00
1:23 AM,80.6,75.2,84,30.05,1.8,SE,10.4,-,N/A,,Mostly Cloudy,140,2013-05-11 05:23:00
1:31 AM,80.6,75.2,84,30.05,2.5,SE,11.5,-,N/A,,Mostly Cloudy,140,2013-05-11 05:31:00
1:45 AM,80.6,75.2,84,30.05,7.0,SE,8.1,-,N/A,,Mostly Cloudy,140,2013-05-11 05:45:00
1:53 AM,79.0,75.9,90,30.04,4.0,SE,10.4,-,N/A,,Mostly Cloudy,130,2013-05-11 05:53:00
2:53 AM,79.0,75.9,90,30.04,10.0,SE,9.2,-,N/A,,Partly Cloudy,140,2013-05-11 06:53:00
3:53 AM,79.0,75.0,88,30.03,4.0,SE,6.9,-,N/A,,Clear,140,2013-05-11 07:53:00
4:53 AM,79.0,75.0,88,30.02,10.0,SE,9.2,-,N/A,,Clear,140,2013-05-11 08:53:00
5:54 AM,78.8,75.2,89,30.02,10.0,SE,6.9,-,N/A,,Partly Cloudy,130,2013-05-11 09:54:00
6:53 AM,79.0,75.0,88,30.04,10.0,SE,10.4,-,N/A,,Scattered Clouds,140,2013-05-11 10:53:00
7:53 AM,80.1,75.0,85,30.04,10.0,SE,11.5,-,0.02,,Scattered Clouds,140,2013-05-11 11:53:00
8:53 AM,82.0,73.9,76,30.05,10.0,SE,12.7,-,N/A,,Scattered Clouds,140,2013-05-11 12:53:00
9:53 AM,82.9,73.9,74,30.06,10.0,SE,13.8,-,N/A,,Clear,140,2013-05-11 13:53:00
10:53 AM,84.9,73.9,69,30.07,10.0,SE,13.8,-,N/A,,Scattered Clouds,140,2013-05-11 14:53:00
11:53 AM,84.9,73.9,69,30.06,10.0,SSE,15.0,-,N/A,,Clear,160,2013-05-11 15:53:00
12:53 PM,86.0,73.9,67,30.05,10.0,SSE,13.8,-,N/A,,Partly Cloudy,160,2013-05-11 16:53:00
1:53 PM,84.9,73.9,69,30.04,10.0,SSE,10.4,-,N/A,,Scattered Clouds,160,2013-05-11 17:53:00
2:53 PM,84.9,73.9,69,30.03,10.0,South,11.5,-,N/A,,Scattered Clouds,170,2013-05-11 18:53:00
3:53 PM,84.0,73.0,69,30.02,10.0,SSE,8.1,-,N/A,,Scattered Clouds,160,2013-05-11 19:53:00
4:53 PM,84.0,73.9,72,30.02,10.0,SSE,6.9,-,N/A,,Scattered Clouds,150,2013-05-11 20:53:00
5:53 PM,82.9,73.0,72,30.01,10.0,SE,8.1,-,N/A,,Scattered Clouds,130,2013-05-11 21:53:00
6:53 PM,82.0,73.0,74,30.01,10.0,SSE,5.8,-,N/A,,Scattered Clouds,150,2013-05-11 22:53:00
7:53 PM,80.1,73.9,81,30.01,10.0,ESE,5.8,-,0.01,,Scattered Clouds,120,2013-05-11 23:53:00
8:53 PM,79.0,73.9,84,30.04,10.0,East,6.9,-,N/A,,Scattered Clouds,100,2013-05-12 00:53:00
9:53 PM,79.0,73.9,84,30.04,10.0,East,8.1,-,N/A,,Scattered Clouds,100,2013-05-12 01:53:00
10:53 PM,79.0,73.9,84,30.05,10.0,East,10.4,-,N/A,,Clear,90,2013-05-12 02:53:00
11:53 PM,79.0,73.9,84,30.05,10.0,East,9.2,-,N/A,,Clear,100,2013-05-12 03:53:00